TimeEDT,TemperatureF,Dew PointF,Humidity,Sea Level PressureIn,VisibilityMPH,Wind Direction,Wind SpeedMPH,Gust SpeedMPH,PrecipitationIn,Events,Conditions,WindDirDegrees,DateUTC
12:54 AM,37.9,27.0,65,30.45,10.0,NNW,8.1,-,N/A,,Clear,340,2012-10-13 04:54:00
1:54 AM,37.0,26.1,65,30.45,10.0,North,5.8,-,N/A,,Clear,350,2012-10-13 05:54:00
2:54 AM,35.1,26.1,70,30.46,10.0,North,4.6,-,N/A,,Clear,350,2012-10-13 06:54:00
3:54 AM,33.1,26.1,75,30.45,10.0,North,5.8,-,N/A,,Clear,350,2012-10-13 07:54:00
4:54 AM,33.1,26.1,75,30.48,10.0,North,5.8,-,N/A,,Clear,350,2012-10-13 08:54:00
5:54 AM,32.0,26.1,79,30.50,10.0,Calm,Calm,-,N/A,,Clear,0,2012-10-13 09:54:00
6:54 AM,30.9,26.1,82,30.52,10.0,NW,4.6,-,N/A,,Clear,320,2012-10-13 10:54:00
7:54 AM,34.0,27.0,75,30.52,10.0,North,4.6,-,N/A,,Clear,10,2012-10-13 11:54:00
8:54 AM,42.1,28.0,58,30.52,10.0,NNE,6.9,-,N/A,,Clear,20,2012-10-13 12:54:00
9:54 AM,48.0,28.9,48,30.52,10.0,NE,9.2,-,N/A,,Clear,50,2012-10-13 13:54:00
10:54 AM,51.1,32.0,48,30.52,10.0,NE,5.8,-,N/A,,Clear,50,2012-10-13 14:54:00
11:54 AM,55.0,32.0,42,30.52,10.0,Variable,4.6,-,N/A,,Clear,0,2012-10-13 15:54:00
12:54 PM,55.0,32.0,42,30.48,10.0,East,5.8,-,N/A,,Clear,100,2012-10-13 16:54:00
1:54 PM,55.0,32.0,42,30.45,10.0,SE,3.5,-,N/A,,Clear,140,2012-10-13 17:54:00
2:54 PM,55.0,34.0,45,30.43,10.0,SE,9.2,-,N/A,,Clear,130,2012-10-13 18:54:00
3:54 PM,55.0,33.1,43,30.42,10.0,South,8.1,-,N/A,,Clear,170,2012-10-13 19:54:00
4:54 PM,54.0,36.0,51,30.41,10.0,South,8.1,-,N/A,,Clear,170,2012-10-13 20:54:00
5:54 PM,53.1,37.0,55,30.41,10.0,South,6.9,-,N/A,,Clear,170,2012-10-13 21:54:00
6:54 PM,51.1,37.9,61,30.41,10.0,South,3.5,-,N/A,,Clear,170,2012-10-13 22:54:00
7:54 PM,50.0,39.0,66,30.40,10.0,South,4.6,-,N/A,,Clear,170,2012-10-13 23:54:00
8:54 PM,48.9,39.9,71,30.40,10.0,South,4.6,-,N/A,,Clear,190,2012-10-14 00:54:00
9:54 PM,48.9,39.9,71,30.38,10.0,South,4.6,-,N/A,,Clear,180,2012-10-14 01:54:00
10:54 PM,50.0,43.0,77,30.37,10.0,SSW,4.6,-,N/A,,Clear,210,2012-10-14 02:54:00
11:54 PM,48.0,42.1,80,30.33,10.0,South,4.6,-,N/A,,Clear,190,2012-10-14 03:54:00